Overview Statistics Trail Chart Weather Telemetry Raw packets
 

This is the latest recevied weather packets stored in our database for station/object NL3D. If no packets are shown the sender has not sent any weather packets the latest 10 day(s).

<< 43 44 45 46 47 48 49 >>
Time Temp. Humidity Pressure Rain* Wind** Luminosity Snow
1777409377 8.89° C 61% 1013 hPa 0 mm - 553 W/m² -
1777409072 8.89° C 62% 1012.5 hPa 0 mm - 329 W/m² -
1777408769 8.89° C 62% 1012.7 hPa 0 mm - 241 W/m² -
1777408465 8.33° C 67% 1012.6 hPa 0 mm - 430 W/m² -
1777408160 7.78° C 75% 1012.7 hPa 0 mm - 382 W/m² -
1777407856 7.22° C 76% 1012.7 hPa 0 mm - 309 W/m² -
1777407554 6.67° C 79% 1012.5 hPa 0 mm - 765 W/m² -
1777407253 7.22° C 78% 1012.5 hPa 0 mm - 264 W/m² -
1777406947 7.78° C 77% 1012.4 hPa 0 mm - 260 W/m² -
1777406647 6.67° C 80% 1012.6 hPa 0 mm - 573 W/m² -
1777406344 6.67° C 78% 1012.3 hPa 0 mm - 500 W/m² -
1777406043 6.67° C 84% 1012.2 hPa 0 mm - 315 W/m² -
1777405740 6.11° C 82% 1012.4 hPa 0 mm - 629 W/m² -
1777405436 5.56° C 89% 1012.3 hPa 0 mm - 626 W/m² -
1777405133 4.44° C 88% 1012.4 hPa 0.51 mm - 352 W/m² -
1777404832 4.44° C 86% 1012.3 hPa 0.51 mm - 188 W/m² -
1777404529 5.56° C 84% 1012.1 hPa 0 mm - 119 W/m² -
1777404224 5.56° C 85% 1012 hPa 0 mm - 154 W/m² -
1777403921 5.56° C 84% 1012 hPa 0 mm - 271 W/m² -
1777403620 6.11° C 85% 1011.9 hPa 0 mm - 388 W/m² -
1777403315 5.56° C 86% 1011.6 hPa 0 mm - 345 W/m² -
1777403010 5° C 90% 1011.7 hPa 0 mm - 235 W/m² -
1777402705 4.44° C 90% 1011.6 hPa 0 mm - 282 W/m² -
1777402405 4.44° C 93% 1011.8 hPa 0 mm - 260 W/m² -
1777402104 3.89° C 94% 1011.6 hPa 0 mm - 296 W/m² -

* Rain latest hour (hover to see other rain measurements)
** Current wind speed in m/s (hover to see current wind gust speed)